Theta_e
310 310 308 308 307 305 305 305 304 302 300 298 296 294 293 293 292 291 291 291 291 290 289 288 288 287 286 285 285 284 284 283 283 288 284 285 284 284 285 285 285 285 285
310 310 309 307 306 305 305 304 303 302 300 298 296 294 293 292 292 291 291 291 290 289 288 288 287 286 286 285 284 283 283 283 283 285 286 285 284 282 283 284 283 284 283
309 309 308 306 306 305 304 303 303 301 299 297 296 294 293 292 291 290 290 289 289 288 288 287 286 286 285 284 283 283 283 282 282 283 285 283 283 282 282 282 282 280 278
309 308 307 307 307 306 305 303 302 301 299 298 296 294 292 291 291 290 289 289 288 287 287 286 286 285 284 283 283 282 282 281 281 281 282 283 279 278 277 278 278 278 278
310 309 309 308 306 304 304 303 301 300 298 297 295 294 292 291 290 289 288 288 287 287 286 286 285 284 284 283 282 281 281 280 279 278 278 277 277 277 278 278 277 277 277
311 309 309 308 307 305 303 302 300 299 297 296 294 293 292 290 289 288 287 287 286 286 286 285 285 284 283 282 281 280 278 278 277 278 277 278 277 277 277 277 276 276 276
310 309 308 308 306 305 302 301 300 299 297 295 293 291 290 289 288 287 287 286 286 286 285 285 286 284 283 282 281 280 279 278 277 277 277 277 276 276 276 276 276 276 277
310 309 307 306 304 303 301 299 298 296 295 294 292 291 289 288 286 286 285 285 285 286 286 286 284 283 281 281 280 279 278 277 278 277 276 276 276 276 276 277 277 277 277
308 308 306 305 303 302 300 298 296 295 294 292 291 290 289 287 286 285 284 284 284 284 283 282 281 281 281 280 279 277 277 277 277 276 275 275 276 276 275 274 274 273 274
307 306 306 304 302 301 299 298 296 295 293 292 290 289 288 287 285 285 284 284 285 283 281 281 280 280 280 279 277 277 276 277 275 275 275 276 275 276 275 273 272 272 272
302 302 301 300 298 297 296 295 294 293 291 290 289 287 286 284 283 284 283 284 282 282 281 280 280 280 280 277 276 276 276 275 275 275 276 276 276 274 273 271 272 272 272
302 301 299 298 297 295 294 292 291 290 289 288 287 286 284 283 283 282 281 281 281 280 281 280 279 279 278 277 277 276 276 275 276 276 276 275 274 273 272 271 271 271 271
301 303 305 299 295 294 293 291 289 289 288 287 286 284 283 282 281 280 281 280 278 279 279 279 279 278 277 276 277 276 276 276 276 275 275 275 273 273 272 272 271 271 271
298 301 301 301 301 296 291 291 290 288 287 285 284 283 282 281 281 282 281 280 279 279 279 279 278 277 276 276 276 276 276 276 275 274 274 273 273 273 272 271 272 272 271
295 294 296 298 297 297 298 295 293 289 289 288 285 283 282 281 284 284 283 279 279 278 278 277 277 276 276 276 276 276 276 275 274 273 273 273 273 271 271 271 272 271 271
293 294 294 292 292 294 291 288 285 284 285 285 284 284 282 283 284 281 278 278 277 278 277 276 276 275 275 274 274 275 274 273 273 273 272 272 271 270 270 271 271 271 270
292 292 292 293 290 287 286 284 283 278 278 278 279 281 280 284 281 279 277 276 276 277 276 275 274 274 274 273 274 273 273 273 272 272 272 272 270 269 270 271 271 270 270
287 289 290 290 290 289 286 283 281 278 277 276 276 277 280 278 278 277 276 276 276 275 274 273 274 274 273 273 273 272 272 272 272 272 272 271 270 270 271 271 270 270 270
283 284 287 287 285 283 282 278 277 276 277 276 275 276 276 276 275 274 275 276 275 274 273 273 273 274 273 273 272 272 272 272 272 272 272 271 270 270 270 270 270 270 270
281 283 284 284 282 279 278 276 276 276 275 276 276 276 275 275 275 275 276 274 273 272 273 273 273 273 272 272 272 271 272 272 272 272 272 271 270 270 270 269 270 270 269
279 281 281 280 279 278 276 275 275 274 276 277 276 277 276 276 275 275 274 273 272 272 272 272 272 272 272 272 271 271 271 271 272 272 271 271 270 270 270 269 269 269 269
278 279 278 276 276 275 274 274 274 275 276 276 277 275 274 274 274 274 273 273 272 272 272 272 271 272 271 271 271 271 271 271 272 272 271 271 270 270 269 269 269 269 269
277 277 276 274 274 273 273 273 273 274 276 277 276 273 273 273 273 273 272 272 272 272 272 271 271 271 271 270 270 270 270 271 272 272 271 270 270 270 269 268 269 269 269
275 275 274 273 273 272 272 271 273 276 277 276 273 274 273 273 272 272 272 271 271 271 271 271 270 271 270 270 270 270 270 271 272 272 270 270 270 270 269 269 270 269 269
273 272 272 271 271 271 271 273 275 276 276 273 273 273 272 272 271 272 271 271 271 271 270 270 270 270 270 270 270 270 270 271 272 271 271 270 270 270 269 269 270 270 269
271 271 270 270 270 271 273 275 275 274 272 272 272 272 272 272 271 271 271 271 270 270 270 270 270 269 270 269 269 270 270 270 271 271 271 270 270 270 269 269 269 270 268
Wind_Speed
41 43 49 52 54 53 51 50 46 43 41 39 37 39 41 39 37 35 32 29 27 26 25 24 23 23 23 24 24 25 28 31 43 61 52 56 59 57 56 56 57 58 61
40 45 48 50 50 52 54 53 49 47 43 38 36 38 40 40 39 37 34 31 28 27 25 25 23 23 23 24 26 27 30 32 38 54 61 58 58 59 59 59 59 59 61
42 44 47 49 48 50 53 52 51 49 45 40 38 39 41 42 41 38 35 32 30 27 26 25 24 23 24 25 26 28 31 34 37 45 61 58 58 57 58 59 61 60 56
39 44 46 47 47 47 50 52 51 49 46 43 41 40 42 42 41 39 37 34 31 28 25 24 23 23 25 25 27 28 31 34 36 41 51 60 55 52 48 53 57 50 53
44 47 48 47 47 47 48 49 48 48 45 43 40 39 42 44 43 41 38 33 30 26 24 24 23 24 24 26 27 28 29 32 34 40 46 52 55 50 47 50 53 56 58
49 49 48 49 47 48 47 47 47 46 44 41 41 42 43 45 44 41 36 32 29 26 25 23 24 23 25 24 24 24 24 27 32 37 42 46 58 50 53 54 55 54 64
50 48 50 50 50 48 45 45 46 45 43 43 43 42 44 44 42 39 36 32 29 26 24 26 23 27 25 25 27 28 26 26 28 33 42 46 54 52 53 57 55 56 62
43 45 46 46 46 44 43 44 44 44 44 44 42 41 43 41 39 36 33 31 28 25 25 24 27 23 21 24 26 28 29 31 34 34 41 46 47 50 48 53 57 59 62
38 38 38 39 40 40 42 43 43 41 42 42 42 42 42 39 39 36 34 29 24 24 26 23 24 19 21 22 23 27 30 36 37 33 35 38 39 42 44 48 54 48 55
30 32 33 33 35 38 40 40 39 38 40 41 42 42 40 39 40 37 34 28 26 28 23 24 20 18 18 19 19 26 33 35 34 35 40 42 44 41 38 33 38 45 48
22 23 25 27 30 33 35 36 37 37 39 41 41 40 40 38 36 34 33 27 29 24 24 20 17 16 17 15 19 23 27 27 33 36 39 41 41 40 38 34 34 38 47
17 17 19 23 26 29 30 32 34 37 38 41 41 41 40 39 36 33 28 29 25 23 22 16 14 14 13 14 16 20 23 25 30 33 36 39 41 41 40 40 37 41 46
25 24 21 18 22 26 29 32 35 37 40 42 43 43 42 39 34 31 29 26 19 22 17 13 12 10 12 14 16 18 21 25 29 33 36 39 39 42 43 45 44 47 49
33 31 28 26 25 26 29 31 35 39 42 44 46 46 43 40 38 32 30 25 25 19 15 11 8 8 11 14 15 17 21 25 28 33 37 39 41 44 45 40 47 49 50
35 36 34 34 33 34 34 37 38 41 44 46 47 47 45 42 35 32 30 28 23 18 13 10 6 7 12 14 16 19 22 25 29 32 36 40 42 45 45 42 48 49 46
37 38 37 36 38 37 38 38 39 42 40 42 45 47 45 38 35 30 27 23 20 16 12 9 8 8 12 14 17 21 22 25 29 32 36 39 41 45 44 47 48 45 46
36 40 39 37 38 37 37 39 41 29 33 37 44 45 41 40 34 31 25 23 19 15 11 10 8 7 10 13 17 20 24 26 29 33 37 41 41 44 42 50 49 46 47
41 39 40 39 39 37 39 40 40 40 34 27 24 32 33 31 31 27 28 25 20 15 11 10 8 8 10 12 16 20 24 27 30 34 37 41 41 41 47 49 48 48 48
38 44 42 39 37 36 35 37 37 36 40 39 32 27 31 29 26 25 25 22 18 14 12 11 8 9 10 12 16 18 22 26 30 34 38 41 43 41 48 49 50 49 47
33 37 41 37 34 34 32 37 39 42 45 43 40 40 38 33 34 32 25 21 17 15 13 9 8 10 11 13 15 18 23 26 30 33 37 41 43 46 48 51 51 51 49
32 32 35 34 34 34 36 40 44 48 48 45 47 40 40 39 34 24 23 19 16 15 12 8 9 9 11 13 15 18 22 25 29 32 37 42 42 51 51 50 52 49 49
29 31 34 34 32 33 37 43 47 50 49 48 40 37 37 32 27 24 21 17 15 13 10 8 9 9 11 13 16 19 22 26 29 32 37 43 48 53 52 52 51 50 48
31 31 31 31 32 34 37 41 47 49 45 41 40 40 37 32 27 23 19 16 13 11 9 9 9 9 11 13 15 18 21 25 28 29 38 44 49 52 52 52 52 50 51
28 29 31 32 33 35 39 42 44 43 42 41 42 35 33 29 25 21 18 14 12 10 10 10 11 11 11 13 14 16 17 21 24 26 35 43 46 51 52 53 52 52 51
25 28 30 32 35 37 37 38 41 41 39 40 37 32 31 27 23 19 15 13 11 10 11 12 12 13 14 14 15 16 17 19 20 25 35 42 44 48 51 53 52 54 52
22 25 26 27 29 32 36 39 38 37 38 37 33 30 27 23 20 17 14 11 11 11 11 12 13 14 14 15 16 17 18 19 21 26 36 40 42 47 51 52 52 52 52
Wind_Direction
237 241 242 242 243 243 243 242 241 244 244 243 238 236 234 236 237 238 239 242 246 250 258 260 264 270 276 283 288 292 294 297 296 301 301 305 305 308 309 309 307 308 307
243 244 245 246 247 247 246 245 244 244 244 243 239 235 234 236 238 237 239 243 246 250 255 259 265 271 278 283 289 292 295 295 295 298 302 304 306 308 309 309 310 307 306
245 248 248 248 249 250 249 246 244 244 243 241 237 235 236 235 235 237 239 242 245 249 252 257 264 272 277 283 287 293 295 295 296 297 300 303 304 307 310 309 310 308 304
258 255 252 251 253 252 250 247 244 243 242 240 238 236 235 234 235 236 237 241 244 247 251 257 264 271 279 285 290 294 295 296 297 298 298 302 305 306 303 305 304 299 296
262 255 255 256 254 251 249 247 244 242 241 238 235 234 233 233 233 233 235 238 244 248 252 257 266 273 282 287 292 296 296 297 299 300 298 299 298 300 300 300 294 298 295
264 258 256 255 254 250 246 243 240 239 238 235 232 231 233 232 232 233 235 238 241 245 249 258 266 276 280 287 292 290 284 287 290 291 289 287 292 297 298 295 293 294 294
261 258 253 251 249 248 244 240 237 236 234 230 228 229 231 233 232 234 237 237 240 244 250 258 269 272 281 291 290 289 291 288 283 286 285 284 291 295 296 296 293 291 288
262 257 253 247 246 245 241 237 234 231 228 227 227 227 230 231 233 235 237 239 239 246 256 262 265 272 282 286 294 299 301 302 301 297 292 291 288 295 293 291 293 292 288
257 256 252 247 244 241 237 234 231 227 224 225 225 227 227 226 230 233 236 238 242 252 254 260 265 277 284 291 296 301 301 297 298 292 288 288 290 289 290 287 284 288 287
256 253 252 248 244 240 237 234 231 228 227 225 223 224 226 223 225 228 233 233 242 247 253 257 268 283 291 294 301 293 292 301 304 308 301 302 304 305 310 293 287 285 286
274 270 263 255 245 240 236 232 228 224 221 221 221 223 223 220 221 226 231 233 240 243 248 257 270 277 286 295 292 294 300 305 300 307 308 310 316 318 318 310 292 285 285
311 297 277 263 252 243 236 233 226 222 220 219 219 217 217 217 219 222 226 237 235 243 252 262 269 280 296 302 305 308 312 312 315 315 319 322 324 324 320 315 306 292 287
292 291 290 278 261 250 240 231 226 222 221 220 217 215 212 211 212 214 225 227 225 238 248 253 266 289 298 307 309 318 322 325 329 329 326 327 328 327 327 328 316 304 298
276 267 260 263 267 252 241 236 231 227 223 222 218 211 208 208 208 210 215 218 227 234 235 240 258 285 299 306 313 325 333 336 336 333 332 331 332 334 329 321 310 308 302
280 268 263 255 246 240 242 244 237 232 232 224 220 216 209 207 209 216 218 217 216 216 216 230 252 279 289 306 322 329 332 336 337 336 335 335 337 332 326 313 311 308 301
277 269 263 255 248 241 235 231 230 235 232 226 227 215 209 209 211 208 214 214 209 206 199 219 234 273 299 315 326 332 337 339 339 336 338 339 336 326 318 314 313 309 305
278 272 260 253 248 245 238 232 224 217 220 215 216 214 208 203 194 200 204 210 202 204 206 218 246 277 300 316 330 335 340 342 339 340 342 342 339 322 318 317 315 312 309
275 275 266 258 250 241 239 232 225 216 193 193 190 199 200 195 193 190 187 193 201 202 213 234 255 278 300 318 330 335 340 340 341 342 342 344 338 328 321 319 318 315 312
272 268 265 259 251 242 231 224 213 194 183 175 170 177 180 181 175 178 191 188 195 206 221 237 260 286 298 317 327 334 338 341 344 340 343 344 341 329 323 323 320 317 314
267 263 257 250 242 234 221 211 191 182 175 178 184 186 178 173 183 198 189 188 192 210 224 235 265 284 301 315 325 333 338 343 343 341 343 346 343 331 328 326 324 320 317
258 258 251 243 237 227 210 193 186 183 184 187 191 190 187 190 190 187 186 190 195 209 222 236 259 280 305 320 326 332 338 341 341 340 344 347 340 336 339 330 327 323 320
252 248 236 230 222 211 199 193 190 189 193 194 187 185 189 185 186 188 192 196 200 213 228 241 263 288 307 324 328 332 335 339 339 340 344 349 342 343 342 336 332 328 326
238 231 223 215 208 202 195 196 193 195 191 185 180 182 184 183 187 191 195 201 207 223 238 254 270 285 306 317 328 330 329 336 336 340 347 347 342 345 345 339 338 334 332
222 215 208 203 200 196 194 191 194 188 182 179 183 183 178 181 186 190 197 202 213 233 252 266 277 291 300 308 321 326 325 333 336 342 349 343 340 347 349 345 346 340 338
200 198 196 194 190 190 190 189 182 179 177 178 177 175 176 181 185 191 199 207 221 241 259 271 284 290 296 306 318 327 329 330 337 348 343 337 342 347 351 349 351 351 346
186 186 186 186 187 187 182 176 173 172 174 173 173 173 177 180 185 194 203 214 230 246 262 275 281 285 293 304 318 327 334 337 345 353 339 339 345 346 351 350 354 356 351